Вернуться в каталог

COSMOS 970 DEB

АктивенLEO
NORAD 65014·DEBRIS·🇷🇺 Russia

Запущен Dec 21, 1977 с Baikonur Cosmodrome

Loading…

Ближайшие Пролёты (ближайшие 24 часа)

TLE

УстаревающийSource: Space-Track

Эпоха: Sep 12, 2026, 12:50 UTC

1 65014U 77121EB  26255.53494180  .00000057  00000-0  19796-3 0  9995
2 65014  65.8158 295.2139 0050129  74.3814 286.2761 13.52724290586967

Отслеживайте COSMOS 970 DEB в реальном времени с AllMySat

Download on the App Store